Location: Unspecified
(29.7686°N, 0.0000°E)
Time: 03:30:02
(UTC+00:00)

OPS 1127 - Visible Passes

Search period start: 04 April 2026 00:00
Search period end: 14 April 2026 00:00
Orbit: 761 x 826 km, 98.4° (Epoch: 29 March)

Date Brightness Start Highest point End Pass type
(mag) Time Alt. Az. Time Alt. Az. Time Alt. Az.
4 Apr 7.4 19:22:02 10° NE 19:26:11 25° E 19:27:47 22° SE visible
4 Apr 8.4 21:01:24 10° NNW 21:05:37 27° WNW 21:08:36 16° WSW visible
5 Apr 8.2 18:55:29 10° ENE 18:57:27 12° E 18:59:08 11° ESE visible
5 Apr 7.1 20:32:17 10° N 20:37:13 54° WNW 20:39:56 26° SW visible
6 Apr 6.3 20:03:39 10° NNE 20:08:43 74° ESE 20:11:16 30° S visible
7 Apr 7.0 19:35:28 10° NNE 19:40:08 36° E 19:42:35 23° SSE visible
7 Apr 8.9 21:15:48 10° NNW 21:19:24 20° WNW 21:23:00 10° WSW visible
8 Apr 7.8 19:08:03 10° NE 19:11:27 18° E 19:13:54 13° SE visible
8 Apr 7.8 20:46:22 10° N 20:51:02 38° WNW 20:54:43 16° SW visible
9 Apr 6.5 20:17:30 10° N 20:22:36 79° WNW 20:26:02 21° SSW visible
10 Apr 6.6 19:49:05 10° NNE 19:54:03 51° E 19:57:21 21° S visible
10 Apr 9.3 21:30:32 10° NW 21:33:08 14° WNW 21:35:44 10° W visible
11 Apr 7.5 19:21:13 10° NE 19:25:24 25° E 19:28:38 14° SE visible
11 Apr 8.4 21:00:34 10° NNW 21:04:50 28° WNW 21:09:09 10° SW visible
12 Apr 8.2 18:54:39 10° ENE 18:56:41 12° E 18:58:42 10° ESE visible
12 Apr 7.1 20:31:27 10° N 20:36:26 55° WNW 20:40:45 14° SSW visible
13 Apr 6.4 20:02:49 10° NNE 20:07:57 74° ESE 20:12:03 16° S visible
